TimeCDT,TemperatureF,Dew PointF,Humidity,Sea Level PressureIn,VisibilityMPH,Wind Direction,Wind SpeedMPH,Gust SpeedMPH,PrecipitationIn,Events,Conditions,WindDirDegrees,DateUTC
12:15 AM,50.7,15.8,25,30.14,10.0,ESE,4.6,-,N/A,,Clear,120,2013-05-06 05:15:00
12:35 AM,48.6,16.3,28,30.14,10.0,ESE,5.8,-,N/A,,Clear,120,2013-05-06 05:35:00
12:55 AM,48.7,16.3,28,30.13,10.0,SE,5.8,-,N/A,,Clear,130,2013-05-06 05:55:00
1:15 AM,48.2,15.8,27,30.13,10.0,ESE,6.9,-,N/A,,Clear,120,2013-05-06 06:15:00
1:35 AM,45.7,17.2,32,30.12,10.0,ESE,6.9,-,N/A,,Clear,120,2013-05-06 06:35:00
1:55 AM,45.0,18.1,34,30.12,10.0,ESE,6.9,-,N/A,,Clear,120,2013-05-06 06:55:00
2:15 AM,47.3,17.6,31,30.11,10.0,ESE,6.9,-,N/A,,Clear,120,2013-05-06 07:15:00
2:35 AM,43.2,18.7,38,30.11,10.0,SE,6.9,-,N/A,,Clear,130,2013-05-06 07:35:00
2:55 AM,43.9,19.4,38,30.10,10.0,ESE,6.9,-,N/A,,Clear,120,2013-05-06 07:55:00
3:15 AM,44.6,20.7,39,30.10,10.0,ESE,6.9,-,N/A,,Clear,120,2013-05-06 08:15:00
3:35 AM,41.9,22.5,46,30.10,10.0,ESE,8.1,-,N/A,,Clear,120,2013-05-06 08:35:00
3:55 AM,41.5,22.8,47,30.10,10.0,SE,9.2,-,N/A,,Clear,130,2013-05-06 08:55:00
4:15 AM,39.4,19.4,45,30.10,10.0,SE,8.1,-,N/A,,Clear,130,2013-05-06 09:15:00
4:35 AM,40.3,19.9,44,30.10,10.0,SE,8.1,-,N/A,,Clear,130,2013-05-06 09:35:00
4:55 AM,39.4,22.6,51,30.10,10.0,SE,9.2,-,N/A,,Clear,140,2013-05-06 09:55:00
5:15 AM,38.7,22.3,52,30.10,10.0,SSE,5.8,-,N/A,,Clear,150,2013-05-06 10:15:00
5:35 AM,37.6,23.0,56,30.10,10.0,South,8.1,-,N/A,,Clear,170,2013-05-06 10:35:00
5:55 AM,37.2,24.3,60,30.10,10.0,SSE,6.9,-,N/A,,Clear,160,2013-05-06 10:55:00
6:15 AM,39.0,25.3,58,30.10,10.0,SSE,6.9,-,N/A,,Clear,150,2013-05-06 11:15:00
6:35 AM,39.2,26.6,61,30.10,10.0,SSE,8.1,-,N/A,,Clear,150,2013-05-06 11:35:00
6:55 AM,40.3,27.3,60,30.10,10.0,SSE,6.9,-,N/A,,Clear,150,2013-05-06 11:55:00
7:15 AM,40.8,28.4,61,30.11,10.0,SE,9.2,-,N/A,,Clear,140,2013-05-06 12:15:00
7:35 AM,45.7,31.1,57,30.11,10.0,SSE,6.9,-,N/A,,Clear,160,2013-05-06 12:35:00
7:55 AM,47.3,32.2,56,30.12,10.0,SSE,8.1,-,N/A,,Clear,150,2013-05-06 12:55:00
8:15 AM,48.4,32.9,55,30.12,10.0,SSE,9.2,-,N/A,,Clear,160,2013-05-06 13:15:00
8:35 AM,51.1,33.4,51,30.13,10.0,South,9.2,-,N/A,,Clear,170,2013-05-06 13:35:00
8:55 AM,53.6,33.8,47,30.12,10.0,South,9.2,-,N/A,,Clear,180,2013-05-06 13:55:00
9:15 AM,56.1,34.2,44,30.14,10.0,South,10.4,-,N/A,,Clear,190,2013-05-06 14:15:00
9:35 AM,56.5,34.3,43,30.14,10.0,South,8.1,-,N/A,,Clear,190,2013-05-06 14:35:00
9:55 AM,57.9,35.1,42,30.13,10.0,South,10.4,-,N/A,,Clear,180,2013-05-06 14:55:00
10:15 AM,59.5,35.4,41,30.12,10.0,South,10.4,-,N/A,,Clear,170,2013-05-06 15:15:00
10:35 AM,61.7,35.4,38,30.13,10.0,SSE,15.0,-,N/A,,Clear,160,2013-05-06 15:35:00
10:55 AM,63.1,35.1,35,30.13,10.0,South,16.1,20.7,N/A,,Clear,170,2013-05-06 15:55:00
11:15 AM,63.7,35.6,35,30.12,10.0,South,11.5,20.7,N/A,,Clear,170,2013-05-06 16:15:00
11:35 AM,64.9,35.8,34,30.12,10.0,SSE,13.8,19.6,N/A,,Clear,160,2013-05-06 16:35:00
11:55 AM,66.0,34.9,32,30.12,10.0,South,15.0,19.6,N/A,,Clear,170,2013-05-06 16:55:00
12:15 PM,65.3,34.3,32,30.11,10.0,SSE,12.7,-,N/A,,Clear,160,2013-05-06 17:15:00
12:35 PM,67.3,34.0,29,30.11,10.0,SSE,10.4,19.6,N/A,,Clear,160,2013-05-06 17:35:00
12:55 PM,67.5,35.2,30,30.10,10.0,South,16.1,19.6,N/A,,Clear,190,2013-05-06 17:55:00
1:15 PM,70.2,35.4,28,30.09,10.0,South,16.1,20.7,N/A,,Clear,190,2013-05-06 18:15:00
1:35 PM,72.0,33.4,24,30.09,10.0,South,23.0,27.6,N/A,,Clear,190,2013-05-06 18:35:00
1:55 PM,72.1,32.7,23,30.08,10.0,South,17.3,24.2,N/A,,Clear,190,2013-05-06 18:55:00
2:15 PM,69.8,33.3,26,30.08,10.0,SSW,17.3,25.3,N/A,,Clear,200,2013-05-06 19:15:00
2:35 PM,70.2,34.0,26,30.08,10.0,SSW,20.7,25.3,N/A,,Clear,200,2013-05-06 19:35:00
2:55 PM,65.3,37.2,35,30.09,10.0,WSW,24.2,33.4,N/A,,Scattered Clouds,240,2013-05-06 19:55:00
3:15 PM,66.6,38.5,36,30.08,10.0,WSW,24.2,29.9,N/A,,Scattered Clouds,250,2013-05-06 20:15:00
3:35 PM,68.0,38.1,33,30.07,10.0,SW,17.3,32.2,N/A,,Clear,230,2013-05-06 20:35:00
3:55 PM,66.2,40.5,39,30.08,10.0,SW,28.8,34.5,N/A,,Scattered Clouds,220,2013-05-06 20:55:00
4:15 PM,63.9,43.0,47,30.08,10.0,SW,21.9,28.8,N/A,,Clear,220,2013-05-06 21:15:00
4:35 PM,62.6,43.0,49,30.07,10.0,SW,23.0,26.5,N/A,,Clear,220,2013-05-06 21:35:00
4:55 PM,61.5,42.8,50,30.07,10.0,SW,21.9,25.3,N/A,,Clear,220,2013-05-06 21:55:00
5:15 PM,60.6,42.6,52,30.07,10.0,SW,17.3,-,N/A,,Clear,220,2013-05-06 22:15:00
5:55 PM,59.4,43.3,55,30.06,10.0,SSW,6.9,-,N/A,,Light Drizzle,200,2013-05-06 22:55:00
6:15 PM,60.3,42.1,51,30.06,10.0,South,8.1,-,N/A,,Scattered Clouds,190,2013-05-06 23:15:00
6:35 PM,62.1,41.0,46,30.05,10.0,South,12.7,-,N/A,,Scattered Clouds,180,2013-05-06 23:35:00
6:55 PM,63.0,41.2,45,30.04,10.0,South,12.7,-,N/A,,Clear,170,2013-05-06 23:55:00
7:15 PM,62.8,41.0,45,30.03,10.0,SSE,13.8,17.3,N/A,,Clear,160,2013-05-07 00:15:00
7:35 PM,61.0,40.3,46,30.04,10.0,SSE,11.5,-,N/A,,Clear,160,2013-05-07 00:35:00
7:55 PM,60.8,39.6,46,30.05,10.0,SSE,11.5,-,N/A,,Clear,160,2013-05-07 00:55:00
8:15 PM,60.3,39.2,46,30.05,10.0,SSE,9.2,-,N/A,,Clear,150,2013-05-07 01:15:00
8:35 PM,59.4,39.7,48,30.07,10.0,South,8.1,-,N/A,,Scattered Clouds,170,2013-05-07 01:35:00
8:55 PM,56.5,45.0,65,30.11,10.0,SW,11.5,-,N/A,Rain,Light Rain,230,2013-05-07 01:55:00
9:15 PM,52.9,48.4,85,30.12,7.0,WSW,9.2,-,0.02,Rain,Rain,240,2013-05-07 02:15:00
9:55 PM,51.1,49.1,93,30.08,10.0,SE,3.5,-,0.03,,Scattered Clouds,130,2013-05-07 02:55:00
10:15 PM,51.1,48.9,92,30.07,10.0,SE,5.8,-,N/A,,Clear,130,2013-05-07 03:15:00
10:35 PM,51.1,48.6,91,30.07,10.0,SSE,8.1,-,N/A,,Clear,150,2013-05-07 03:35:00
10:55 PM,51.3,48.4,90,30.07,10.0,SSE,10.4,-,N/A,,Clear,150,2013-05-07 03:55:00
11:15 PM,51.3,47.3,86,30.06,10.0,SSE,9.2,-,N/A,,Clear,150,2013-05-07 04:15:00
11:35 PM,50.7,46.6,86,30.06,10.0,SSE,11.5,-,N/A,,Clear,150,2013-05-07 04:35:00
11:55 PM,49.1,46.0,89,30.06,10.0,SSE,10.4,-,N/A,,Clear,160,2013-05-07 04:55:00